Location: Ch?enovice
(49.7164°N, 15.2160°E)
Time: 20:39:01
(UTC+00:00)

Cosmos 1703 - Pass Details

Date: 23 May 2024
Orbit: 485 x 499 km, 82.5° (Epoch: 20 June)

Event Time Altitude Azimuth Distance (km) Brightness Sun altitude
Exits shadow 02:02:28 11° 210° (SSW) 1,669 5.1 -8.4°
Maximum altitude 02:05:58 46° 284° (WNW) 682 3.6 -8.0°
Drops below altitude 10° 02:09:36 10° 359° (N) 1,714 6.5 -7.6°
Sets 02:11:48 0° 6° (N) 2,600 7.6 -7.4°
